Location: Pasadena, ca
(34.1243°N, 118.1037°W)
Time: 21:16:20
(UTC-07:00)

Envisat - Pass Details

Date: 07 October 2017
Orbit: 764 x 766 km, 98.2° (Epoch: 22 October)

Event Time Altitude Azimuth Distance (km) Brightness Sun altitude
Exits shadow 19:58:36 25° 48° (NE) 1,519 4.2 -19.6°
Drops below altitude 10° 20:01:42 10° 13° (NNE) 2,307 5.4 -20.2°
Sets 20:04:18 0° 2° (N) 3,236 6.3 -20.7°
